SCP
0 0 0 0 0 0 0 0 0 0 0 0 0 0 0 0 0 0 0 0 0 0 0 0 0 0 0 0 0 0 0 0 0 0 0 0 0 0 0 0 0 0 0 0
0 0 0 0 0 0 0 0 0 0 0 0 0 0 0 0 0 0 0 0 0 0 0 0 0 0 0 0 0 0 0 0 0 0 0 0 0 0 0 0 0 0 0 0
0 0 0 0 0 0 0 0 0 0 0 0 0 0 0 0 0 0 0 0 0 0 0 0 0 0 0 0 0 0 0 0 0 0 0 0 0 0 0 0 0 0 0 0
0 0 0 0 0 0 0 0 0 0 0 0 0 0 -0 -0 -0 0 0 0 -0 -0 0 0 -0 0 0 0 0 0 0 0 0 0 0 0 0 0 0 0 0 0 0 0
0 0 0 0 0 0 0 0 0 0 0 0 0 0 -0 0 0 0 0 0 -0 0 0 0 0 0 0 0 0 0 0 0 0 0 0 0 0 0 0 0 0 0 0 0
0 0 0 0 0 0 0 0 0 0 0 0 0 0 -0 0 0 0 0 0 0 0 0 0 0 0 0 0 0 0 0 0 0 0 0 0 0 0 0 0 0 0 0 0
-0 0 0 0 0 0 0 0 0 0 0 0 0 0 0 -0 0 0 0 0 0 0 0 0 0 0 0 0 0 0 0 0 0 0 0 0 0 0 0 0 0 0 0 0
0 0 0 0 0 0 0 0 0 0 0 0 0 0 -0 -0 0 0 0 0 0 0 0 0 0 0 0 0 0 0 0 0 0 0 0 0 0 0 0 0 0 0 0 0
0 0 0 0 0 0 0 0 0 0 0 0 0 0 0 0 0 -0 -0 0 0 0 0 0 0 0 0 0 0 0 0 0 0 0 0 0 0 0 0 0 0 0 0 0
0 0 0 0 0 0 0 0 0 0 0 0 0 0 0 0 0 -0 0 0 0 0 0 0 0 0 0 0 0 0 0 0 0 0 0 0 0 0 0 0 0 0 0 0
0 0 0 0 0 0 0 0 0 0 0 0 0 0 0 0 0 0 0 0 0 0 0 0 0 0 0 0 0 0 0 0 0 0 0 0 0 0 0 0 0 0 0 0
0 0 0 0 0 0 0 0 0 0 0 0 0 -0 0 0 0 0 0 0 0 0 0 0 0 0 0 0 0 0 0 0 0 0 0 0 0 0 0 0 0 0 0 0
0 0 0 0 0 0 0 0 0 0 0 0 0 0 0 0 0 0 0 0 0 0 0 0 0 0 0 0 0 0 0 0 0 0 0 0 0 0 0 0 0 0 0 0
0 0 0 0 0 0 0 0 0 0 0 0 0 0 0 0 0 0 0 0 0 0 0 0 0 0 0 0 0 0 0 0 0 0 0 0 0 0 0 0 0 0 0 0
0 -0 0 0 0 0 0 0 0 0 0 0 0 0 0 0 0 0 0 0 0 0 0 0 0 0 0 0 0 0 0 0 0 0 0 0 0 0 0 0 0 0 0 0
0 0 0 0 0 0 0 0 0 0 0 0 0 0 0 0 0 0 0 0 0 0 0 0 0 0 0 0 0 0 0 0 0 0 0 0 0 0 0 0 0 0 0 0
0 0 0 0 0 0 0 0 0 0 0 0 0 0 0 0 0 0 0 0 0 0 0 0 0 0 0 0 0 0 0 0 0 0 0 0 0 0 0 0 0 0 0 0
0 0 0 0 0 0 0 0 0 0 0 0 0 0 0 0 0 0 0 0 0 0 0 0 0 0 0 0 0 0 0 0 0 0 0 0 0 0 0 0 0 0 0 0
-0 0 0 0 0 0 0 0 0 0 0 0 0 0 0 0 0 0 0 0 0 0 0 0 0 0 0 0 0 0 0 0 0 0 0 0 0 0 0 0 0 0 0 0
-0 -0 0 0 0 0 0 0 0 0 0 0 0 0 0 0 0 0 0 0 0 0 0 0 0 0 0 0 0 0 0 0 0 0 0 0 0 0 0 0 0 0 0 0
-0 -0 0 0 0 0 0 0 0 0 0 0 0 0 0 0 0 0 0 0 0 0 0 0 0 0 0 0 0 0 0 0 0 0 0 0 0 0 0 0 0 0 0 0
-0 -0 -0 0 0 0 0 0 0 0 0 0 0 0 0 0 0 0 0 0 0 0 0 0 0 0 0 0 0 0 0 0 0 0 0 0 0 0 0 0 0 0 0 0
0 0 0 0 0 0 0 0 0 0 0 0 0 0 0 0 0 0 0 0 0 0 0 0 0 0 0 0 0 0 0 0 0 0 0 0 0 0 0 0 0 0 0 0
0 0 0 0 0 0 -0 0 0 0 0 0 0 0 0 0 0 0 0 0 0 0 0 0 0 0 0 0 0 0 0 0 0 0 0 0 0 0 0 0 0 0 0 0
0 0 0 0 0 0 0 0 -0 -0 -0 -0 -0 0 0 0 0 0 0 0 0 0 0 0 0 0 0 0 0 0 0 0 0 0 0 0 0 0 0 0 0 0 0 0
0 0 0 -0 -0 0 0 0 0 0 0 -0 -0 -0 0 0 0 0 0 0 0 0 0 0 0 0 0 0 0 0 0 0 0 0 0 0 0 0 0 0 0 0 0 0
Wind_Speed_500mb
50 21 29 50 45 15 16 11 27 18 12 10 25 33 25 50 25 37 62 56 69 75 66 65 67 67 73 73 74 72 71 70 66 68 65 64 64 60 57 55 53 50 47 44
16 42 40 34 22 27 17 28 28 8 12 12 12 30 25 25 34 57 52 55 71 73 74 71 67 70 75 73 76 76 76 76 73 73 71 71 67 68 63 58 58 57 55 52
43 39 39 35 33 36 31 37 24 13 5 2 4 28 24 16 56 51 61 66 65 67 71 80 79 76 72 77 77 77 78 79 78 73 71 70 71 72 70 72 68 64 60 57
32 54 27 36 41 30 40 19 17 19 13 14 13 14 13 14 35 28 65 80 89 85 80 72 81 79 79 73 71 73 75 79 77 73 75 74 73 76 70 71 69 67 64 62
13 22 46 40 44 52 29 12 14 16 18 5 9 8 12 5 16 18 48 77 90 90 87 88 80 82 74 68 77 72 72 73 75 72 74 73 74 72 68 69 68 68 66 67
12 20 17 38 43 39 8 15 6 8 6 14 32 22 17 17 17 15 43 68 85 97 99 91 89 80 76 65 73 78 76 70 73 72 73 74 72 71 69 68 66 66 65 66
15 24 19 22 37 37 27 28 8 13 9 14 18 16 37 12 19 24 30 56 61 59 66 81 94 82 80 74 68 74 80 74 71 70 71 71 70 70 70 68 66 64 63 65
30 24 33 39 30 23 55 40 13 13 18 15 6 21 13 22 48 54 47 36 32 49 55 57 62 79 73 70 66 66 78 80 76 73 70 69 68 69 70 70 69 65 66 65
16 20 15 24 19 43 40 30 18 11 3 6 10 15 15 21 22 29 44 34 29 36 46 45 42 60 68 65 65 66 69 72 79 79 75 75 73 71 70 69 67 68 68 64
14 9 25 39 14 45 27 48 25 6 12 9 10 12 24 21 35 22 20 57 47 40 36 34 35 39 44 48 59 64 62 67 67 70 74 75 74 72 69 67 67 68 65 61
14 5 6 36 37 42 9 34 10 8 8 11 6 17 13 33 20 25 33 65 74 52 44 39 41 41 38 36 36 45 56 59 60 60 61 63 64 65 66 68 67 66 64 63
30 10 12 53 10 21 54 35 51 27 15 8 2 28 8 18 14 36 40 52 80 59 52 43 38 37 40 38 35 35 41 47 49 50 53 55 56 59 63 65 66 66 67 65
25 11 15 10 17 5 47 32 43 8 5 15 15 17 0 8 13 22 29 40 57 54 48 44 41 38 38 38 38 35 35 36 38 41 44 46 49 52 56 59 61 62 62 61
54 14 13 21 51 31 61 55 52 57 33 50 40 48 12 9 8 6 21 39 45 46 45 43 41 39 36 33 29 27 25 26 28 30 32 34 36 39 43 46 49 51 53 54
28 21 30 41 41 33 57 75 68 61 71 46 64 38 9 10 11 15 33 42 45 49 48 46 42 34 32 32 31 29 28 25 23 21 20 20 22 25 27 29 31 33 36 38
7 7 26 30 35 39 29 49 45 57 52 13 13 17 15 15 18 18 36 44 49 47 45 44 41 37 34 31 29 27 26 24 22 21 21 21 21 22 23 24 26 28 31 32
3 8 6 32 14 22 43 48 51 56 51 58 36 49 14 10 16 40 46 58 63 61 49 49 45 34 31 31 28 26 25 26 25 24 22 21 22 22 22 23 25 28 30 31
7 6 1 5 19 22 11 45 58 60 55 48 34 30 22 25 50 59 65 77 82 71 58 53 48 39 35 33 35 35 33 31 31 30 26 24 24 24 24 24 23 21 17 15
15 7 3 6 14 6 8 13 48 41 51 59 50 39 27 43 13 37 74 84 95 80 70 57 49 41 37 35 35 35 36 39 37 33 29 29 30 28 27 24 20 15 12 7
21 12 10 6 11 14 18 15 18 9 35 38 63 55 38 39 27 37 79 92 92 85 65 59 56 46 42 38 36 36 38 38 39 38 35 36 34 30 26 21 17 11 6 5
9 3 17 21 11 18 13 12 65 31 43 62 70 74 60 28 62 98 84 94 92 84 80 66 57 52 45 39 37 40 42 41 39 41 40 37 32 28 22 18 14 12 11 11
16 16 9 8 8 23 12 34 42 50 15 8 70 94 82 104 108 76 78 81 91 80 72 72 63 56 51 45 46 48 47 43 40 39 37 34 27 22 22 20 19 17 16 12
7 14 13 17 15 7 49 16 73 8 23 38 26 70 91 92 91 95 99 86 72 72 73 70 64 58 54 51 48 44 42 39 36 36 37 33 31 29 25 22 20 19 16 15
7 13 8 7 11 27 31 70 38 45 20 21 19 29 70 81 93 96 96 82 66 71 74 71 65 61 54 47 44 41 38 37 37 36 35 34 31 29 26 22 21 17 15 12
10 14 12 14 13 28 45 45 64 72 54 63 25 18 29 73 79 87 84 82 78 81 79 71 64 55 50 46 42 41 39 37 38 37 37 37 35 29 23 21 19 17 15 14
13 21 16 10 27 36 47 64 60 66 65 57 62 38 28 40 64 75 79 86 84 80 77 71 59 53 50 46 43 42 41 40 39 41 39 34 30 29 23 19 18 17 15 14
Wind_Direction_500mb
199 204 211 198 208 214 170 221 215 219 222 160 217 247 240 252 249 241 234 232 229 232 234 234 233 233 231 232 230 230 231 234 235 236 234 236 237 238 240 242 241 242 244 245
199 226 218 204 202 203 189 212 219 222 171 155 252 260 249 234 242 237 234 234 237 237 239 238 238 235 233 231 232 231 231 233 234 237 237 240 243 243 243 248 249 247 246 246
223 220 216 196 190 200 212 209 203 203 131 35 11 269 254 242 246 244 243 247 249 246 247 242 239 236 234 232 231 233 232 233 232 236 238 241 246 248 246 245 245 246 247 249
216 237 214 205 203 191 216 185 194 196 144 221 171 267 239 231 243 218 238 245 248 250 248 246 237 238 235 234 235 235 236 234 234 234 238 240 243 247 250 251 252 252 251 251
202 192 211 219 193 194 234 148 169 195 193 146 207 257 255 188 251 234 237 238 243 245 244 240 236 236 238 237 238 237 236 237 238 236 240 244 247 252 257 257 255 254 254 254
238 306 267 211 202 196 133 139 80 62 206 220 210 210 223 212 211 226 239 242 243 244 244 242 238 234 236 239 240 237 238 239 240 241 241 246 250 251 255 255 255 256 256 255
223 254 269 200 190 187 180 161 184 197 211 228 193 209 243 209 221 219 226 243 248 243 246 245 237 233 233 236 239 238 237 238 241 243 244 247 252 253 256 258 259 260 262 262
221 236 213 186 204 176 193 190 174 192 196 212 87 232 241 225 236 240 239 246 257 236 236 239 233 228 230 233 237 238 238 240 241 243 246 249 253 256 258 260 261 264 268 270
183 228 192 214 185 183 194 201 184 89 23 84 205 282 288 254 261 250 234 226 234 229 224 224 222 218 226 231 237 237 239 241 244 247 248 250 253 256 260 263 267 268 270 272
173 260 200 211 193 207 184 191 196 182 158 231 241 278 233 210 221 232 216 225 221 209 207 203 202 206 216 227 232 231 237 239 245 248 248 249 253 258 261 266 266 269 272 273
176 203 260 198 206 181 172 198 179 171 168 211 239 251 205 224 226 226 224 218 214 205 205 209 209 212 220 224 224 223 230 236 240 244 246 249 252 257 260 262 265 267 269 270
194 171 230 214 199 229 199 193 193 195 201 223 240 251 150 245 282 245 228 213 210 211 206 206 208 208 213 216 219 221 226 232 236 239 242 245 248 251 253 257 262 265 268 270
155 202 252 203 252 286 197 209 193 156 202 211 213 253 70 315 263 226 201 205 202 209 201 196 198 199 202 210 219 224 224 225 230 235 240 244 247 250 254 257 260 262 265 268
167 171 217 239 215 183 191 199 194 200 207 220 219 239 267 295 286 257 196 192 191 194 197 194 190 186 187 190 194 198 206 216 223 229 235 240 243 246 248 252 256 260 262 263
178 188 204 242 270 199 209 196 197 197 213 208 227 233 207 251 236 234 203 188 188 187 184 180 179 181 183 183 183 182 184 191 199 208 216 226 235 241 246 249 253 256 257 258
337 215 176 230 239 208 216 207 198 208 212 245 172 246 196 209 176 186 207 192 190 192 191 190 194 193 193 190 188 187 191 195 199 206 215 224 231 236 242 248 255 259 260 258
326 16 239 222 192 231 211 198 196 208 208 214 209 223 163 187 194 193 198 201 200 202 193 189 189 190 186 186 186 194 204 215 219 222 225 229 235 239 244 249 252 254 254 256
165 189 2 298 153 221 228 210 207 206 207 218 245 178 178 201 215 215 208 203 211 209 202 202 203 193 189 191 199 208 220 228 230 230 232 236 241 242 244 245 245 244 241 243
172 125 328 274 238 322 269 219 194 188 220 216 228 225 212 214 188 236 220 214 219 213 211 209 205 198 195 199 207 217 229 234 235 238 239 239 239 238 241 242 242 238 235 225
176 158 153 41 267 236 238 151 167 126 262 209 215 219 195 162 212 232 225 220 224 223 215 215 203 200 203 210 218 231 236 238 240 239 238 237 236 235 235 233 225 213 197 179
141 132 212 221 251 277 248 202 139 163 232 223 210 219 208 193 213 221 223 225 224 224 221 215 207 208 214 222 231 238 235 236 234 233 231 231 230 230 229 224 214 202 201 202
168 168 187 181 235 267 184 150 167 213 253 258 205 221 208 213 221 220 221 227 219 219 216 211 211 213 221 233 236 231 229 229 228 228 229 226 223 222 220 215 204 194 189 198
209 191 176 193 216 259 207 190 202 9 222 230 241 214 206 208 217 221 222 224 221 219 213 205 206 215 227 228 228 225 227 225 225 222 216 212 209 208 207 203 195 185 184 196
237 188 218 149 242 259 256 235 240 275 305 307 270 230 219 217 219 216 218 213 212 206 203 204 209 212 214 215 219 220 218 215 210 205 204 201 200 203 197 194 187 184 183 200
202 162 196 271 287 293 286 255 251 253 263 264 295 275 238 222 221 221 215 215 209 200 200 203 202 204 209 209 205 202 198 198 194 190 190 194 192 193 187 189 186 185 182 188
190 214 205 230 191 221 243 259 273 251 266 266 266 284 264 233 220 215 208 200 194 196 196 192 195 201 197 194 192 191 188 185 186 185 182 182 183 179 175 181 176 165 166 174
Wind_Speed_850mb
50 21 29 50 45 15 16 11 27 18 12 10 25 33 25 50 25 37 62 56 69 75 66 65 67 67 73 73 74 72 71 70 66 68 65 64 64 60 57 55 53 50 47 44
16 42 40 34 22 27 17 28 28 8 12 12 12 30 25 25 34 57 52 55 71 73 74 71 67 70 75 73 76 76 76 76 73 73 71 71 67 68 63 58 58 57 55 52
43 39 39 35 33 36 31 37 24 13 5 2 4 28 24 16 56 51 61 66 65 67 71 80 79 76 72 77 77 77 78 79 78 73 71 70 71 72 70 72 68 64 60 57
32 54 27 36 41 30 40 19 17 19 13 14 13 14 13 14 35 28 65 80 89 85 80 72 81 79 79 73 71 73 75 79 77 73 75 74 73 76 70 71 69 67 64 62
13 22 46 40 44 52 29 12 14 16 18 5 9 8 12 5 16 18 48 77 90 90 87 88 80 82 74 68 77 72 72 73 75 72 74 73 74 72 68 69 68 68 66 67
12 20 17 38 43 39 8 15 6 8 6 14 32 22 17 17 17 15 43 68 85 97 99 91 89 80 76 65 73 78 76 70 73 72 73 74 72 71 69 68 66 66 65 66
15 24 19 22 37 37 27 28 8 13 9 14 18 16 37 12 19 24 30 56 61 59 66 81 94 82 80 74 68 74 80 74 71 70 71 71 70 70 70 68 66 64 63 65
30 24 33 39 30 23 55 40 13 13 18 15 6 21 13 22 48 54 47 36 32 49 55 57 62 79 73 70 66 66 78 80 76 73 70 69 68 69 70 70 69 65 66 65
16 20 15 24 19 43 40 30 18 11 3 6 10 15 15 21 22 29 44 34 29 36 46 45 42 60 68 65 65 66 69 72 79 79 75 75 73 71 70 69 67 68 68 64
14 9 25 39 14 45 27 48 25 6 12 9 10 12 24 21 35 22 20 57 47 40 36 34 35 39 44 48 59 64 62 67 67 70 74 75 74 72 69 67 67 68 65 61
14 5 6 36 37 42 9 34 10 8 8 11 6 17 13 33 20 25 33 65 74 52 44 39 41 41 38 36 36 45 56 59 60 60 61 63 64 65 66 68 67 66 64 63
30 10 12 53 10 21 54 35 51 27 15 8 2 28 8 18 14 36 40 52 80 59 52 43 38 37 40 38 35 35 41 47 49 50 53 55 56 59 63 65 66 66 67 65
25 11 15 10 17 5 47 32 43 8 5 15 15 17 0 8 13 22 29 40 57 54 48 44 41 38 38 38 38 35 35 36 38 41 44 46 49 52 56 59 61 62 62 61
54 14 13 21 51 31 61 55 52 57 33 50 40 48 12 9 8 6 21 39 45 46 45 43 41 39 36 33 29 27 25 26 28 30 32 34 36 39 43 46 49 51 53 54
28 21 30 41 41 33 57 75 68 61 71 46 64 38 9 10 11 15 33 42 45 49 48 46 42 34 32 32 31 29 28 25 23 21 20 20 22 25 27 29 31 33 36 38
7 7 26 30 35 39 29 49 45 57 52 13 13 17 15 15 18 18 36 44 49 47 45 44 41 37 34 31 29 27 26 24 22 21 21 21 21 22 23 24 26 28 31 32
3 8 6 32 14 22 43 48 51 56 51 58 36 49 14 10 16 40 46 58 63 61 49 49 45 34 31 31 28 26 25 26 25 24 22 21 22 22 22 23 25 28 30 31
7 6 1 5 19 22 11 45 58 60 55 48 34 30 22 25 50 59 65 77 82 71 58 53 48 39 35 33 35 35 33 31 31 30 26 24 24 24 24 24 23 21 17 15
15 7 3 6 14 6 8 13 48 41 51 59 50 39 27 43 13 37 74 84 95 80 70 57 49 41 37 35 35 35 36 39 37 33 29 29 30 28 27 24 20 15 12 7
21 12 10 6 11 14 18 15 18 9 35 38 63 55 38 39 27 37 79 92 92 85 65 59 56 46 42 38 36 36 38 38 39 38 35 36 34 30 26 21 17 11 6 5
9 3 17 21 11 18 13 12 65 31 43 62 70 74 60 28 62 98 84 94 92 84 80 66 57 52 45 39 37 40 42 41 39 41 40 37 32 28 22 18 14 12 11 11
16 16 9 8 8 23 12 34 42 50 15 8 70 94 82 104 108 76 78 81 91 80 72 72 63 56 51 45 46 48 47 43 40 39 37 34 27 22 22 20 19 17 16 12
7 14 13 17 15 7 49 16 73 8 23 38 26 70 91 92 91 95 99 86 72 72 73 70 64 58 54 51 48 44 42 39 36 36 37 33 31 29 25 22 20 19 16 15
7 13 8 7 11 27 31 70 38 45 20 21 19 29 70 81 93 96 96 82 66 71 74 71 65 61 54 47 44 41 38 37 37 36 35 34 31 29 26 22 21 17 15 12
10 14 12 14 13 28 45 45 64 72 54 63 25 18 29 73 79 87 84 82 78 81 79 71 64 55 50 46 42 41 39 37 38 37 37 37 35 29 23 21 19 17 15 14
13 21 16 10 27 36 47 64 60 66 65 57 62 38 28 40 64 75 79 86 84 80 77 71 59 53 50 46 43 42 41 40 39 41 39 34 30 29 23 19 18 17 15 14
Wind_Direction_850mb
199 204 211 198 208 214 170 221 215 219 222 160 217 247 240 252 249 241 234 232 229 232 234 234 233 233 231 232 230 230 231 234 235 236 234 236 237 238 240 242 241 242 244 245
199 226 218 204 202 203 189 212 219 222 171 155 252 260 249 234 242 237 234 234 237 237 239 238 238 235 233 231 232 231 231 233 234 237 237 240 243 243 243 248 249 247 246 246
223 220 216 196 190 200 212 209 203 203 131 35 11 269 254 242 246 244 243 247 249 246 247 242 239 236 234 232 231 233 232 233 232 236 238 241 246 248 246 245 245 246 247 249
216 237 214 205 203 191 216 185 194 196 144 221 171 267 239 231 243 218 238 245 248 250 248 246 237 238 235 234 235 235 236 234 234 234 238 240 243 247 250 251 252 252 251 251
202 192 211 219 193 194 234 148 169 195 193 146 207 257 255 188 251 234 237 238 243 245 244 240 236 236 238 237 238 237 236 237 238 236 240 244 247 252 257 257 255 254 254 254
238 306 267 211 202 196 133 139 80 62 206 220 210 210 223 212 211 226 239 242 243 244 244 242 238 234 236 239 240 237 238 239 240 241 241 246 250 251 255 255 255 256 256 255
223 254 269 200 190 187 180 161 184 197 211 228 193 209 243 209 221 219 226 243 248 243 246 245 237 233 233 236 239 238 237 238 241 243 244 247 252 253 256 258 259 260 262 262
221 236 213 186 204 176 193 190 174 192 196 212 87 232 241 225 236 240 239 246 257 236 236 239 233 228 230 233 237 238 238 240 241 243 246 249 253 256 258 260 261 264 268 270
183 228 192 214 185 183 194 201 184 89 23 84 205 282 288 254 261 250 234 226 234 229 224 224 222 218 226 231 237 237 239 241 244 247 248 250 253 256 260 263 267 268 270 272
173 260 200 211 193 207 184 191 196 182 158 231 241 278 233 210 221 232 216 225 221 209 207 203 202 206 216 227 232 231 237 239 245 248 248 249 253 258 261 266 266 269 272 273
176 203 260 198 206 181 172 198 179 171 168 211 239 251 205 224 226 226 224 218 214 205 205 209 209 212 220 224 224 223 230 236 240 244 246 249 252 257 260 262 265 267 269 270
194 171 230 214 199 229 199 193 193 195 201 223 240 251 150 245 282 245 228 213 210 211 206 206 208 208 213 216 219 221 226 232 236 239 242 245 248 251 253 257 262 265 268 270
155 202 252 203 252 286 197 209 193 156 202 211 213 253 70 315 263 226 201 205 202 209 201 196 198 199 202 210 219 224 224 225 230 235 240 244 247 250 254 257 260 262 265 268
167 171 217 239 215 183 191 199 194 200 207 220 219 239 267 295 286 257 196 192 191 194 197 194 190 186 187 190 194 198 206 216 223 229 235 240 243 246 248 252 256 260 262 263
178 188 204 242 270 199 209 196 197 197 213 208 227 233 207 251 236 234 203 188 188 187 184 180 179 181 183 183 183 182 184 191 199 208 216 226 235 241 246 249 253 256 257 258
337 215 176 230 239 208 216 207 198 208 212 245 172 246 196 209 176 186 207 192 190 192 191 190 194 193 193 190 188 187 191 195 199 206 215 224 231 236 242 248 255 259 260 258
326 16 239 222 192 231 211 198 196 208 208 214 209 223 163 187 194 193 198 201 200 202 193 189 189 190 186 186 186 194 204 215 219 222 225 229 235 239 244 249 252 254 254 256
165 189 2 298 153 221 228 210 207 206 207 218 245 178 178 201 215 215 208 203 211 209 202 202 203 193 189 191 199 208 220 228 230 230 232 236 241 242 244 245 245 244 241 243
172 125 328 274 238 322 269 219 194 188 220 216 228 225 212 214 188 236 220 214 219 213 211 209 205 198 195 199 207 217 229 234 235 238 239 239 239 238 241 242 242 238 235 225
176 158 153 41 267 236 238 151 167 126 262 209 215 219 195 162 212 232 225 220 224 223 215 215 203 200 203 210 218 231 236 238 240 239 238 237 236 235 235 233 225 213 197 179
141 132 212 221 251 277 248 202 139 163 232 223 210 219 208 193 213 221 223 225 224 224 221 215 207 208 214 222 231 238 235 236 234 233 231 231 230 230 229 224 214 202 201 202
168 168 187 181 235 267 184 150 167 213 253 258 205 221 208 213 221 220 221 227 219 219 216 211 211 213 221 233 236 231 229 229 228 228 229 226 223 222 220 215 204 194 189 198
209 191 176 193 216 259 207 190 202 9 222 230 241 214 206 208 217 221 222 224 221 219 213 205 206 215 227 228 228 225 227 225 225 222 216 212 209 208 207 203 195 185 184 196
237 188 218 149 242 259 256 235 240 275 305 307 270 230 219 217 219 216 218 213 212 206 203 204 209 212 214 215 219 220 218 215 210 205 204 201 200 203 197 194 187 184 183 200
202 162 196 271 287 293 286 255 251 253 263 264 295 275 238 222 221 221 215 215 209 200 200 203 202 204 209 209 205 202 198 198 194 190 190 194 192 193 187 189 186 185 182 188
190 214 205 230 191 221 243 259 273 251 266 266 266 284 264 233 220 215 208 200 194 196 196 192 195 201 197 194 192 191 188 185 186 185 182 182 183 179 175 181 176 165 166 174